User: anonymous   Login
Location: Unspecified
(34.6961°N, 0.0000°E)
Time: 09:24:23
(UTC+00:00)
Language:

Cosmos 198 - Orbit

View from above orbital plane
View from above orbital plane
View from above satellite
View from above satellite

Ground track
Ground track

The orbit is defined by the following mean orbital elements,

1 03081U          26088.20355794 +.00000000 +00000-0 +41394-4 0 00009
2 03081  65.1414 130.9890 0013773 125.5103 234.7250 13.93388522    00
Epoch (UTC): 29 March 2026 04:53:07
Eccentricity: 0.0013773
inclination: 65.1414°
perigee height: 907 km
apogee height: 927 km
right ascension of ascending node: 130.9890°
argument of perigee: 125.5103°
revolutions per day: 13.93388522
mean anomaly at epoch: 234.7250°

The dashed part of the orbit path shows where the satellite is in the earth's shadow,  

DLR